User: anonymous   Login
Location: Unspecified
(0.0000°N, 0.0000°E)
Time: 01:59:23
(UTC+00:00)
Language:

LilacSat-2 - Orbit

View from above orbital plane
View from above orbital plane
View from above satellite
View from above satellite

Ground track
Ground track

The orbit data is extracted from the following two-line orbital elements,

1 40908U 15049K   17147.91897968 +.00000391 +00000-0 +25736-4 0  9997
2 40908 097.4620 153.3782 0014546 282.5360 077.4244 15.13093376093105
Epoch (UTC): 27 May 2017 22:03:19
Eccentricity: 0.0014546
inclination: 97.4620°
perigee height: 517 km
apogee height: 537 km
right ascension of ascending node: 153.3782°
argument of perigee: 282.5360°
revolutions per day: 15.13093376
mean anomaly at epoch: 77.4244°
orbit number at epoch: 9310

The dashed part of the orbit path shows where the satellite is in the earth's shadow,  

DLR